Hourly Data Report for April 13, 2017

OTTAWA INTL A
ONTARIO

45°19'00.000" N
75°40'00.000" W
114.90 m
6106001
71628
YOW

Download Data

Hourly Data (April 2017)
Hourly Data Report for April 13, 2017
TIME
LST
Temp Definition
°C
Dew Point Definition
°C
Rel Hum Definition
%
Precip. Amount Definition
mm

Wind Dir Definition
10's deg

Wind Spd Definition
km/h
Visibility Definition
km
Stn Press Definition
kPa
Hmdx Definition


Wind Chill Definition


Weather Definition


00:00 3.7 -0.1 76   28 17 24.1 101.15     LegendNANA
01:00 3.6 0.1 78   28 16 24.1 101.16     Cloudy
02:00 3.0 0.1 81   28 18 24.1 101.19     LegendNANA
03:00 2.1 -0.5 83   28 21 24.1 101.23     LegendNANA
04:00 1.7 -1.0 82   28 19 24.1 101.30     Mainly Clear
05:00 1.3 -1.1 84   29 18 24.1 101.36     LegendNANA
06:00 1.3 -0.9 85   29 15 24.1 101.44     LegendNANA
07:00 2.6 -0.7 79   29 19 24.1 101.51     Clear
08:00 4.0 -1.0 70   29 21 24.1 101.59     LegendNANA
09:00 5.9 -1.0 61   27 22 24.1 101.67     LegendNANA
10:00 7.7 -1.8 51   28 16 24.1 101.65     Clear
11:00 9.0 -2.3 45   29 17 24.1 101.65     LegendNANA
12:00 10.4 -3.6 37   27 15 24.1 101.61     LegendNANA
13:00 11.4 -3.5 35   30 12 24.1 101.57     Mainly Clear
14:00 12.7 -4.0 31   28 24 24.1 101.51     LegendNANA
15:00 12.7 -4.4 30   27 21 24.1 101.45     LegendNANA
16:00 13.4 -3.8 30   28 17 24.1 101.45     Mainly Clear
17:00 12.8 -3.9 31   29 16 24.1 101.45     LegendNANA
18:00 11.5 -3.4 35   29 14 24.1 101.45     LegendNANA
19:00 8.8 -2.8 44   28 11 24.1 101.48     Mainly Clear
20:00 7.6 -3.0 47   28 11 24.1 101.53     LegendNANA
21:00 6.9 -3.1 49   29 8 24.1 101.54     LegendNANA
22:00 7.4 -3.2 47   32 9 24.1 101.53     Clear
23:00 5.3 -3.3 54   1 4 24.1 101.52     LegendNANA

Notes on Data Quality.

Legend

  • E = Estimated
  • M = Missing
  • NA = Not Available*
  • [empty] = Indicates an unobserved value
Date modified: